This is the latest recevied weather packets stored in our database for station/object N9CQL. If no packets are shown the sender has not sent any weather packets the latest 10 day(s).
| Time | Temp. | Humidity | Pressure | Rain* | Wind** | Luminosity | Snow |
|---|---|---|---|---|---|---|---|
| 1777613421 | 5° C | 94% | 1013.9 hPa | 1.78 mm | - | 0 W/m² | - |
| 1777613116 | 5° C | 94% | 1013.6 hPa | 3.56 mm | - | 0 W/m² | - |
| 1777612813 | 5° C | 94% | 1013.7 hPa | 3.05 mm | - | 0 W/m² | - |
| 1777612509 | 5° C | 94% | 1013.7 hPa | 1.27 mm | - | 0 W/m² | - |
| 1777612204 | 5° C | 94% | 1014 hPa | 0 mm | - | 0 W/m² | - |
| 1777611900 | 5° C | 94% | 1014 hPa | 0 mm | - | 0 W/m² | - |
| 1777611596 | 5° C | 94% | 1013.7 hPa | 0 mm | - | 0 W/m² | - |
| 1777611292 | 5° C | 94% | 1013.9 hPa | 0 mm | - | 0 W/m² | - |
| 1777610989 | 5° C | 94% | 1013.7 hPa | 0 mm | - | 0 W/m² | - |
| 1777610685 | 4.44° C | 94% | 1013.7 hPa | 0 mm | - | 0 W/m² | - |
| 1777610384 | 4.44° C | 94% | 1013.5 hPa | 0 mm | - | 0 W/m² | - |
| 1777610080 | 4.44° C | 94% | 1013.9 hPa | 0 mm | - | 0 W/m² | - |
| 1777609778 | 4.44° C | 94% | 1013.7 hPa | 0 mm | - | 0 W/m² | - |
| 1777609474 | 4.44° C | 94% | 1013.4 hPa | 0 mm | - | 0 W/m² | - |
| 1777609172 | 4.44° C | 94% | 1013.6 hPa | 0 mm | - | 0 W/m² | - |
| 1777608869 | 4.44° C | 94% | 1013.4 hPa | 0 mm | - | 0 W/m² | - |
| 1777608565 | 4.44° C | 94% | 1014.1 hPa | 0 mm | - | 0 W/m² | - |
| 1777608262 | 4.44° C | 94% | 1014 hPa | 0 mm | - | 0 W/m² | - |
| 1777607960 | 4.44° C | 94% | 1013.5 hPa | 0 mm | - | 0 W/m² | - |
| 1777607655 | 4.44° C | 94% | 1013.9 hPa | 0 mm | - | 0 W/m² | - |
| 1777607353 | 4.44° C | 94% | 1013.7 hPa | 0 mm | - | 0 W/m² | - |
| 1777607049 | 4.44° C | 93% | 1014 hPa | 1.78 mm | - | 0 W/m² | - |
| 1777606744 | 4.44° C | 93% | 1013.9 hPa | 1.78 mm | - | 0 W/m² | - |
| 1777606439 | 4.44° C | 93% | 1014 hPa | 0 mm | - | 0 W/m² | - |
| 1777606134 | 4.44° C | 93% | 1014.1 hPa | 0 mm | - | 0 W/m² | - |
* Rain latest hour (hover to see other rain measurements)
** Current wind speed in m/s (hover to see current wind gust speed)